{"data":{"norad_id":67590,"intl_designator":"2026-018B","name":"STARLINK-36376","alt_names":[],"object_type":"PAYLOAD","status":"ACTIVE","operator":null,"country":"US","launch_date":"2026-01-29","launch_site_code":"AFWTR","launch_vehicle":null,"mission":null,"orbit_class":"UNKNOWN","rcs_meters":null,"size_class":null,"mass_kg":null,"dimensions":null,"purposes":["comms"],"wikipedia_slug":null,"has_3d_model":false,"image_url":null,"decayed_at":null,"tle_current":{"epoch":"2026-05-25T03:42:10.319040Z","epoch_age_seconds":62061,"freshness":"FRESH","line1":"1 67590U 26018B   26145.15428610  .00020365  00000+0  63182-3 0  9997","line2":"2 67590  97.2847 210.2975 0000664 104.6874 255.4442 15.33426280 19053","mean_motion":15.3342628,"eccentricity":6.64e-5,"inclination_deg":97.2847,"raan_deg":210.2975,"arg_perigee_deg":104.6874,"mean_anomaly_deg":255.4442,"bstar":0.00063182,"rev_number":1905,"period_min":93.907351059615,"perigee_km":465.14444853218,"apogee_km":466.05329665606,"semimajor_km":6843.7358725941,"source":"CELESTRAK","updated_at":"2026-05-25T13:38:21.619184Z"}}}